Time,TemperatureF,DewpointF,PressureIn,WindDirection,WindDirectionDegrees,WindSpeedMPH,WindSpeedGustMPH,Humidity,HourlyPrecipIn,Conditions,Clouds,dailyrainin,SoftwareType,DateUTC
2013-01-24 00:03:00,35.0,20.0,30.12,NE,55,0.0,0.0,53,0.00,,,0.04,,2013-01-24 05:03:00,
2013-01-24 00:12:00,35.0,20.0,30.12,NE,55,0.0,0.0,53,0.00,,,0.04,,2013-01-24 05:12:00,
2013-01-24 00:22:00,35.0,20.0,30.12,NE,53,0.0,3.0,53,0.00,,,0.04,,2013-01-24 05:22:00,
2013-01-24 00:33:00,38.0,22.0,30.09,NNE,24,6.0,11.0,51,0.00,,,0.04,,2013-01-24 05:33:00,
2013-01-24 00:42:00,38.0,22.0,30.09,NNE,24,6.0,11.0,51,0.00,,,0.04,,2013-01-24 05:42:00,
2013-01-24 00:52:00,39.0,22.0,30.09,NE,44,6.0,9.0,50,0.00,,,0.04,,2013-01-24 05:52:00,
2013-01-24 01:03:00,40.0,22.0,30.09,NE,38,6.0,11.0,48,0.00,,,0.04,,2013-01-24 06:03:00,
2013-01-24 01:12:00,40.0,22.0,30.09,NE,38,6.0,11.0,48,0.00,,,0.04,,2013-01-24 06:12:00,
2013-01-24 01:22:00,41.0,23.0,30.09,North,10,4.0,9.0,48,0.00,,,0.04,,2013-01-24 06:22:00,
2013-01-24 01:32:00,41.0,23.0,30.09,ENE,58,0.0,8.0,48,0.00,,,0.04,,2013-01-24 06:32:00,
2013-01-24 01:42:00,41.0,23.0,30.09,ENE,58,0.0,8.0,48,0.00,,,0.04,,2013-01-24 06:42:00,
2013-01-24 01:52:00,42.0,24.0,30.09,ENE,57,4.0,9.0,48,0.00,,,0.04,,2013-01-24 06:52:00,
2013-01-24 02:03:00,43.0,25.0,30.09,NNE,32,6.0,11.0,48,0.00,,,0.04,,2013-01-24 07:03:00,
2013-01-24 02:12:00,43.0,25.0,30.09,NNE,32,6.0,11.0,48,0.00,,,0.04,,2013-01-24 07:12:00,
2013-01-24 02:23:00,43.0,25.0,30.09,East,93,0.0,11.0,48,0.00,,,0.04,,2013-01-24 07:23:00,
2013-01-24 02:33:00,43.0,25.0,30.09,ENE,77,4.0,10.0,48,0.00,,,0.04,,2013-01-24 07:33:00,
2013-01-24 02:43:00,43.0,25.0,30.09,ENE,77,4.0,10.0,48,0.00,,,0.04,,2013-01-24 07:43:00,
2013-01-24 02:52:00,43.0,25.0,30.12,East,81,7.0,10.0,48,0.00,,,0.04,,2013-01-24 07:52:00,
2013-01-24 03:02:00,43.0,26.0,30.12,NE,41,6.0,10.0,50,0.00,,,0.04,,2013-01-24 08:02:00,
2013-01-24 03:12:00,43.0,26.0,30.12,NE,41,6.0,10.0,50,0.00,,,0.04,,2013-01-24 08:12:00,
2013-01-24 03:23:00,43.0,26.0,30.12,ENE,67,7.0,12.0,50,0.00,,,0.04,,2013-01-24 08:23:00,
2013-01-24 03:33:00,41.0,25.0,30.12,ENE,63,3.0,10.0,52,0.00,,,0.04,,2013-01-24 08:33:00,
2013-01-24 03:43:00,41.0,25.0,30.12,ENE,63,3.0,10.0,52,0.00,,,0.04,,2013-01-24 08:43:00,
2013-01-24 03:52:00,41.0,25.0,30.12,ENE,74,3.0,10.0,52,0.00,,,0.04,,2013-01-24 08:52:00,
2013-01-24 04:03:00,40.0,23.0,30.12,NE,55,5.0,8.0,51,0.00,,,0.04,,2013-01-24 09:03:00,
2013-01-24 04:13:00,40.0,23.0,30.12,NE,55,5.0,8.0,51,0.00,,,0.04,,2013-01-24 09:13:00,
2013-01-24 04:23:00,40.0,23.0,30.15,NE,43,5.0,10.0,51,0.00,,,0.04,,2013-01-24 09:23:00,
2013-01-24 04:33:00,39.0,21.0,30.15,ENE,66,0.0,10.0,48,0.00,,,0.04,,2013-01-24 09:33:00,
2013-01-24 04:43:00,39.0,21.0,30.15,ENE,66,0.0,10.0,48,0.00,,,0.04,,2013-01-24 09:43:00,
2013-01-24 04:52:00,38.0,20.0,30.15,NE,56,5.0,7.0,48,0.00,,,0.04,,2013-01-24 09:52:00,
2013-01-24 05:03:00,36.0,20.0,30.15,ENE,63,0.0,4.0,51,0.00,,,0.04,,2013-01-24 10:03:00,
2013-01-24 05:12:00,36.0,20.0,30.15,ENE,63,0.0,4.0,51,0.00,,,0.04,,2013-01-24 10:12:00,
2013-01-24 05:23:00,36.0,19.0,30.15,ENE,73,8.0,8.0,50,0.00,,,0.04,,2013-01-24 10:23:00,
2013-01-24 05:33:00,37.0,19.0,30.18,East,80,0.0,10.0,47,0.00,,,0.04,,2013-01-24 10:33:00,
2013-01-24 05:43:00,37.0,19.0,30.18,East,80,0.0,10.0,47,0.00,,,0.04,,2013-01-24 10:43:00,
2013-01-24 05:52:00,36.0,18.0,30.18,East,81,4.0,8.0,47,0.00,,,0.04,,2013-01-24 10:52:00,
2013-01-24 06:03:00,36.0,16.0,30.18,ENE,77,4.0,11.0,44,0.00,,,0.04,,2013-01-24 11:03:00,
2013-01-24 06:12:00,36.0,16.0,30.18,ENE,77,4.0,11.0,44,0.00,,,0.04,,2013-01-24 11:12:00,
2013-01-24 06:23:00,36.0,15.0,30.21,NE,56,9.0,13.0,41,0.00,,,0.04,,2013-01-24 11:23:00,
2013-01-24 06:33:00,34.0,14.0,30.21,ENE,78,0.0,10.0,43,0.00,,,0.04,,2013-01-24 11:33:00,
2013-01-24 06:43:00,34.0,14.0,30.21,ENE,78,0.0,10.0,43,0.00,,,0.04,,2013-01-24 11:43:00,
2013-01-24 06:53:00,34.0,14.0,30.21,East,85,5.0,7.0,43,0.00,,,0.04,,2013-01-24 11:53:00,
2013-01-24 07:03:00,33.0,13.0,30.21,East,86,5.0,7.0,44,0.00,,,0.04,,2013-01-24 12:03:00,
2013-01-24 07:12:00,33.0,13.0,30.21,East,86,5.0,7.0,44,0.00,,,0.04,,2013-01-24 12:12:00,
2013-01-24 07:23:00,32.0,13.0,30.24,East,97,4.0,7.0,45,0.00,,,0.04,,2013-01-24 12:23:00,
2013-01-24 07:33:00,31.0,13.0,30.24,East,100,0.0,6.0,46,0.00,,,0.04,,2013-01-24 12:33:00,
2013-01-24 07:43:00,31.0,13.0,30.24,East,100,0.0,6.0,46,0.00,,,0.04,,2013-01-24 12:43:00,
2013-01-24 07:53:00,29.0,11.0,30.27,ENE,78,4.0,8.0,47,0.00,,,0.04,,2013-01-24 12:53:00,
2013-01-24 08:03:00,30.0,12.0,30.27,East,79,6.0,10.0,47,0.00,,,0.04,,2013-01-24 13:03:00,
2013-01-24 08:13:00,30.0,12.0,30.27,East,79,6.0,10.0,47,0.00,,,0.04,,2013-01-24 13:13:00,
2013-01-24 08:23:00,30.0,12.0,30.27,East,81,6.0,7.0,47,0.00,,,0.04,,2013-01-24 13:23:00,
2013-01-24 08:33:00,31.0,13.0,30.27,ENE,78,0.0,7.0,47,0.00,,,0.04,,2013-01-24 13:33:00,
2013-01-24 08:43:00,31.0,13.0,30.27,ENE,78,0.0,7.0,47,0.00,,,0.04,,2013-01-24 13:43:00,
2013-01-24 08:53:00,31.0,13.0,30.29,East,90,0.0,6.0,47,0.00,,,0.04,,2013-01-24 13:53:00,
2013-01-24 09:03:00,32.0,13.0,30.29,SE,137,5.0,6.0,45,0.00,,,0.04,,2013-01-24 14:03:00,
2013-01-24 09:12:00,32.0,13.0,30.29,SE,137,5.0,6.0,45,0.00,,,0.04,,2013-01-24 14:12:00,
2013-01-24 09:23:00,33.0,13.0,30.32,SE,135,5.0,7.0,43,0.00,,,0.04,,2013-01-24 14:23:00,
2013-01-24 09:33:00,33.0,12.0,30.32,SE,129,5.0,13.0,41,0.00,,,0.04,,2013-01-24 14:33:00,
2013-01-24 09:43:00,33.0,12.0,30.32,SE,129,5.0,13.0,41,0.00,,,0.04,,2013-01-24 14:43:00,
2013-01-24 09:53:00,33.0,11.0,30.32,East,91,8.0,10.0,40,0.00,,,0.04,,2013-01-24 14:53:00,
2013-01-24 10:04:00,33.0,11.0,30.32,SE,145,6.0,11.0,39,0.00,,,0.04,,2013-01-24 15:04:00,
2013-01-24 10:13:00,33.0,11.0,30.32,SE,145,6.0,11.0,39,0.00,,,0.04,,2013-01-24 15:13:00,
2013-01-24 10:23:00,33.0,10.0,30.35,ESE,105,6.0,11.0,38,0.00,,,0.04,,2013-01-24 15:23:00,
2013-01-24 10:33:00,33.0,10.0,30.35,ESE,105,6.0,11.0,38,0.00,,,0.04,,2013-01-24 15:33:00,
2013-01-24 10:43:00,33.0,10.0,30.35,SE,142,4.0,9.0,37,0.00,,,0.04,,2013-01-24 15:43:00,
2013-01-24 10:53:00,33.0,9.0,30.35,SE,135,7.0,13.0,36,0.00,,,0.04,,2013-01-24 15:53:00,
2013-01-24 11:03:00,33.0,10.0,30.35,South,191,5.0,12.0,37,0.00,,,0.04,,2013-01-24 16:03:00,
2013-01-24 11:12:00,33.0,10.0,30.35,South,191,5.0,12.0,37,0.00,,,0.04,,2013-01-24 16:12:00,
2013-01-24 11:23:00,33.0,9.0,30.38,SE,145,4.0,12.0,36,0.00,,,0.04,,2013-01-24 16:23:00,
2013-01-24 11:33:00,33.0,8.0,30.38,SE,143,3.0,11.0,35,0.00,,,0.04,,2013-01-24 16:33:00,
2013-01-24 11:43:00,33.0,8.0,30.38,SE,143,3.0,11.0,35,0.00,,,0.04,,2013-01-24 16:43:00,
2013-01-24 12:02:00,34.0,9.0,30.38,SE,142,5.0,11.0,35,0.00,,,0.04,,2013-01-24 17:02:00,
2013-01-24 12:12:00,34.0,9.0,30.38,SE,142,5.0,11.0,35,0.00,,,0.04,,2013-01-24 17:12:00,
2013-01-24 12:22:00,34.0,9.0,30.38,East,100,3.0,9.0,35,0.00,,,0.04,,2013-01-24 17:22:00,
2013-01-24 12:32:00,34.0,9.0,30.38,ENE,78,4.0,12.0,35,0.00,,,0.04,,2013-01-24 17:32:00,
2013-01-24 12:42:00,34.0,9.0,30.38,ENE,78,4.0,12.0,35,0.00,,,0.04,,2013-01-24 17:42:00,
2013-01-24 12:52:00,34.0,7.0,30.38,SE,144,0.0,10.0,32,0.00,,,0.00,,2013-01-24 17:52:00,
2013-01-24 13:02:00,35.0,7.0,30.38,ENE,66,5.0,12.0,31,0.00,,,0.00,,2013-01-24 18:02:00,
2013-01-24 13:12:00,35.0,7.0,30.38,SSE,163,0.0,11.0,31,0.00,,,0.00,,2013-01-24 18:12:00,
2013-01-24 13:22:00,35.0,7.0,30.38,SSE,163,0.0,11.0,31,0.00,,,0.00,,2013-01-24 18:22:00,
2013-01-24 13:33:00,35.0,6.0,30.38,SE,130,11.0,14.0,29,0.00,,,0.00,,2013-01-24 18:33:00,
2013-01-24 13:42:00,35.0,6.0,30.38,SE,130,11.0,14.0,29,0.00,,,0.00,,2013-01-24 18:42:00,
2013-01-24 13:53:00,36.0,7.0,30.38,East,92,12.0,12.0,29,0.00,,,0.00,,2013-01-24 18:53:00,
2013-01-24 14:02:00,36.0,7.0,30.38,ENE,75,6.0,10.0,29,0.00,,,0.00,,2013-01-24 19:02:00,
2013-01-24 14:12:00,36.0,7.0,30.38,ENE,75,6.0,10.0,29,0.00,,,0.00,,2013-01-24 19:12:00,
2013-01-24 14:22:00,36.0,7.0,30.35,ESE,113,6.0,10.0,29,0.00,,,0.00,,2013-01-24 19:22:00,
2013-01-24 14:33:00,37.0,8.0,30.35,South,180,7.0,10.0,29,0.00,,,0.00,,2013-01-24 19:33:00,
2013-01-24 14:42:00,36.0,7.0,30.35,SSW,202,6.0,10.0,29,0.00,,,0.00,,2013-01-24 19:42:00,
2013-01-24 14:52:00,36.0,7.0,30.35,SSW,202,6.0,10.0,29,0.00,,,0.00,,2013-01-24 19:52:00,
2013-01-24 15:02:00,35.0,6.0,30.35,East,89,4.0,10.0,29,0.00,,,0.00,,2013-01-24 20:02:00,
2013-01-24 15:11:00,35.0,6.0,30.35,East,89,4.0,10.0,29,0.00,,,0.00,,2013-01-24 20:11:00,
2013-01-24 15:22:00,36.0,7.0,30.35,South,171,3.0,7.0,29,0.00,,,0.00,,2013-01-24 20:22:00,
2013-01-24 15:32:00,37.0,8.0,30.35,SSW,200,5.0,7.0,29,0.00,,,0.00,,2013-01-24 20:32:00,
2013-01-24 15:42:00,37.0,8.0,30.35,SSW,200,5.0,7.0,29,0.00,,,0.00,,2013-01-24 20:42:00,
2013-01-24 15:52:00,37.0,4.0,30.35,ESE,111,0.0,10.0,25,0.00,,,0.00,,2013-01-24 20:52:00,
2013-01-24 16:02:00,39.0,9.0,30.35,East,92,0.0,5.0,28,0.00,,,0.00,,2013-01-24 21:02:00,
2013-01-24 16:12:00,39.0,9.0,30.35,East,92,0.0,5.0,28,0.00,,,0.00,,2013-01-24 21:12:00,
2013-01-24 16:22:00,37.0,8.0,30.35,SSW,208,0.0,10.0,29,0.00,,,0.00,,2013-01-24 21:22:00,
2013-01-24 16:33:00,36.0,7.0,30.38,SSE,164,0.0,6.0,29,0.00,,,0.00,,2013-01-24 21:33:00,
2013-01-24 16:43:00,36.0,7.0,30.38,SSE,164,0.0,6.0,29,0.00,,,0.00,,2013-01-24 21:43:00,
2013-01-24 16:52:00,36.0,7.0,30.38,SSW,199,0.0,7.0,29,0.00,,,0.00,,2013-01-24 21:52:00,
2013-01-24 17:03:00,36.0,4.0,30.38,South,182,5.0,10.0,25,0.00,,,0.00,,2013-01-24 22:03:00,
2013-01-24 17:12:00,36.0,4.0,30.38,South,182,5.0,10.0,25,0.00,,,0.00,,2013-01-24 22:12:00,
2013-01-24 17:22:00,35.0,6.0,30.38,SSW,211,0.0,8.0,29,0.00,,,0.00,,2013-01-24 22:22:00,
2013-01-24 17:32:00,35.0,6.0,30.38,South,189,0.0,8.0,29,0.00,,,0.00,,2013-01-24 22:32:00,
2013-01-24 17:42:00,35.0,6.0,30.38,South,189,0.0,8.0,29,0.00,,,0.00,,2013-01-24 22:42:00,
2013-01-24 17:52:00,34.0,5.0,30.38,South,190,0.0,5.0,29,0.00,,,0.00,,2013-01-24 22:52:00,
2013-01-24 18:03:00,33.0,4.0,30.38,South,184,0.0,0.0,29,0.00,,,0.00,,2013-01-24 23:03:00,
2013-01-24 18:12:00,33.0,4.0,30.38,South,184,0.0,0.0,29,0.00,,,0.00,,2013-01-24 23:12:00,
2013-01-24 18:22:00,31.0,1.0,30.38,South,179,0.0,3.0,27,0.00,,,0.00,,2013-01-24 23:22:00,
2013-01-24 18:32:00,30.0,0.0,30.38,South,176,0.0,5.0,27,0.00,,,0.00,,2013-01-24 23:32:00,
2013-01-24 18:42:00,30.0,0.0,30.38,South,176,0.0,5.0,27,0.00,,,0.00,,2013-01-24 23:42:00,
2013-01-24 18:52:00,30.0,0.0,30.38,South,175,0.0,4.0,27,0.00,,,0.00,,2013-01-24 23:52:00,
2013-01-24 19:02:00,30.0,0.0,30.38,South,176,0.0,3.0,27,0.00,,,0.00,,2013-01-25 00:02:00,
2013-01-24 19:12:00,30.0,0.0,30.38,South,176,0.0,3.0,27,0.00,,,0.00,,2013-01-25 00:12:00,
2013-01-24 19:22:00,27.0,0.0,30.38,South,175,0.0,0.0,30,0.00,,,0.00,,2013-01-25 00:22:00,
2013-01-24 19:32:00,27.0,0.0,30.38,South,176,0.0,0.0,30,0.00,,,0.00,,2013-01-25 00:32:00,
2013-01-24 19:42:00,27.0,0.0,30.38,South,176,0.0,0.0,30,0.00,,,0.00,,2013-01-25 00:42:00,
2013-01-24 19:53:00,26.0,1.0,30.38,South,177,0.0,0.0,33,0.00,,,0.00,,2013-01-25 00:53:00,
2013-01-24 20:02:00,27.0,0.0,30.38,South,175,0.0,0.0,30,0.00,,,0.00,,2013-01-25 01:02:00,
2013-01-24 20:12:00,27.0,0.0,30.38,South,175,0.0,0.0,30,0.00,,,0.00,,2013-01-25 01:12:00,
2013-01-24 20:22:00,27.0,0.0,30.38,South,175,0.0,0.0,31,0.00,,,0.00,,2013-01-25 01:22:00,
2013-01-24 20:32:00,26.0,1.0,30.38,South,175,0.0,0.0,33,0.00,,,0.00,,2013-01-25 01:32:00,
2013-01-24 20:42:00,26.0,1.0,30.38,South,175,0.0,0.0,33,0.00,,,0.00,,2013-01-25 01:42:00,
2013-01-24 20:52:00,27.0,2.0,30.35,South,173,0.0,6.0,33,0.00,,,0.00,,2013-01-25 01:52:00,
2013-01-24 21:02:00,28.0,1.0,30.35,SSW,204,0.0,5.0,30,0.00,,,0.00,,2013-01-25 02:02:00,
2013-01-24 21:12:00,28.0,1.0,30.35,SSW,204,0.0,5.0,30,0.00,,,0.00,,2013-01-25 02:12:00,
2013-01-24 21:22:00,27.0,0.0,30.35,SSW,209,0.0,5.0,30,0.00,,,0.00,,2013-01-25 02:22:00,
2013-01-24 21:32:00,27.0,0.0,30.38,SSW,203,0.0,7.0,30,0.00,,,0.00,,2013-01-25 02:32:00,
2013-01-24 21:42:00,27.0,0.0,30.35,SSW,202,0.0,5.0,30,0.00,,,0.00,,2013-01-25 02:42:00,
2013-01-24 21:53:00,27.0,0.0,30.35,SSW,202,0.0,5.0,30,0.00,,,0.00,,2013-01-25 02:53:00,
2013-01-24 22:02:00,26.0,0.0,30.35,SSW,199,0.0,3.0,31,0.00,,,0.00,,2013-01-25 03:02:00,
2013-01-24 22:12:00,26.0,0.0,30.35,SSW,199,0.0,4.0,31,0.00,,,0.00,,2013-01-25 03:12:00,
2013-01-24 22:22:00,26.0,0.0,30.35,SSW,199,0.0,4.0,31,0.00,,,0.00,,2013-01-25 03:22:00,
2013-01-24 22:33:00,26.0,0.0,30.35,SSW,206,0.0,4.0,31,0.00,,,0.00,,2013-01-25 03:33:00,
2013-01-24 22:42:00,26.0,0.0,30.35,SSW,206,0.0,4.0,31,0.00,,,0.00,,2013-01-25 03:42:00,
2013-01-24 22:52:00,25.0,-1.0,30.35,SSW,208,0.0,6.0,31,0.00,,,0.00,,2013-01-25 03:52:00,
2013-01-24 23:02:00,25.0,-1.0,30.35,SW,218,0.0,5.0,31,0.00,,,0.00,,2013-01-25 04:02:00,
2013-01-24 23:12:00,25.0,-1.0,30.35,SW,221,0.0,5.0,31,0.00,,,0.00,,2013-01-25 04:12:00,
2013-01-24 23:22:00,25.0,-1.0,30.35,SW,221,0.0,5.0,31,0.00,,,0.00,,2013-01-25 04:22:00,
2013-01-24 23:32:00,25.0,-1.0,30.35,SSW,198,0.0,4.0,31,0.00,,,0.00,,2013-01-25 04:32:00,
2013-01-24 23:42:00,25.0,-1.0,30.35,SSW,198,0.0,4.0,31,0.00,,,0.00,,2013-01-25 04:42:00,
2013-01-24 23:51:00,25.0,0.0,30.35,SSW,197,0.0,3.0,33,0.00,,,0.00,,2013-01-25 04:51:00,